Theta_e
277 277 276 276 275 275 275 274 274 274 274 274 274 274 274 274 274 274 274 274 274 274 274 273 273 274 274 274 275 275 276 276 277 278 280 281 283 284 286 290 292 293 293 293 293 294 294 295 296 297 299 301 303 309 312 312 313 313 313 314 314 314 315 315 314 311 310 311 311 310 312 314 313 314 315 315 315 315 315 315 316 315 316 317 318
276 276 275 275 274 274 274 273 273 273 273 274 274 274 274 274 274 274 273 273 273 273 273 273 273 273 273 274 274 274 274 275 275 277 279 280 281 282 284 288 292 293 293 293 293 293 294 295 296 297 299 300 303 309 312 311 313 313 313 313 313 313 315 314 312 310 308 307 308 309 310 312 312 312 314 314 314 315 315 316 316 316 317 318 318
275 275 274 274 274 273 273 273 272 273 273 273 273 273 273 273 273 273 273 273 273 273 273 273 273 273 273 273 273 273 273 274 275 276 278 280 281 281 283 286 289 292 292 292 293 293 293 294 295 296 298 299 303 309 312 311 312 313 312 313 312 313 314 313 311 309 307 305 306 307 308 310 311 311 314 315 315 315 314 315 316 317 318 318 318
274 274 273 273 273 272 272 272 272 272 273 273 273 273 273 273 273 273 273 273 273 273 273 273 273 273 273 273 273 273 273 274 275 276 278 279 280 281 282 283 287 291 292 292 292 292 293 293 294 295 297 298 303 309 311 311 312 313 313 313 313 312 313 312 311 309 306 304 304 306 307 308 309 310 311 313 313 314 314 314 315 316 317 318 317
273 273 272 272 271 271 271 271 271 272 272 272 273 272 272 272 272 272 272 272 272 272 272 272 272 272 273 273 273 274 274 274 274 275 276 277 279 280 281 282 284 288 291 292 292 292 292 293 293 295 296 298 303 309 311 311 312 312 312 312 312 312 312 311 310 309 307 304 302 304 306 307 307 308 310 310 310 310 312 313 314 315 316 317 317
272 272 271 271 270 270 270 271 271 271 272 272 272 272 272 272 272 272 272 271 271 271 271 271 271 272 272 272 273 273 273 273 273 273 274 275 277 279 280 281 283 286 290 291 292 291 292 293 293 295 296 297 303 309 310 310 311 311 311 312 311 311 310 309 309 308 307 305 303 302 304 305 305 305 308 310 309 307 308 309 311 313 314 314 315
271 270 270 270 270 270 270 270 271 271 271 271 272 271 271 271 271 271 270 270 270 270 270 270 270 271 271 271 271 272 272 272 272 273 274 275 276 278 279 280 282 285 289 290 291 291 291 292 292 293 295 297 302 308 310 310 311 311 311 311 311 310 309 307 307 307 306 304 303 302 302 303 304 304 305 308 309 307 306 305 305 307 310 312 312
270 269 269 269 269 269 270 270 270 271 271 271 271 271 271 270 270 269 269 269 269 269 269 269 269 270 270 270 271 271 271 272 272 273 273 274 276 277 278 280 281 284 288 290 291 291 291 292 292 292 294 295 299 306 310 310 310 311 310 310 310 309 308 306 306 306 304 303 303 303 302 302 302 302 302 303 304 304 305 304 303 303 306 308 309
269 268 268 269 269 269 269 270 270 270 270 270 270 270 269 268 268 268 267 267 268 268 268 268 269 269 270 270 270 271 271 272 272 273 274 275 276 277 279 280 281 283 286 288 290 291 291 291 292 292 293 294 296 301 308 310 310 310 310 310 309 308 306 305 305 304 303 303 302 302 302 301 300 299 300 302 303 303 304 305 303 302 303 303 305
268 268 268 268 269 269 269 269 269 269 269 269 268 268 267 267 267 266 266 267 267 267 268 268 269 269 270 270 270 271 271 272 273 274 275 276 278 279 279 280 281 283 284 286 288 290 291 291 291 291 292 293 295 298 304 310 310 310 310 309 309 308 306 305 305 304 303 302 302 302 302 301 300 300 301 303 305 304 303 304 302 300 301 301 301
267 268 268 268 269 269 269 269 269 268 268 267 267 266 266 266 266 266 266 266 267 267 268 268 269 269 270 270 270 271 271 272 273 274 275 276 278 279 281 281 282 283 284 285 287 289 290 290 291 291 291 293 294 297 303 308 309 310 310 309 308 308 306 305 304 304 303 303 302 302 302 301 301 302 302 303 304 304 303 303 302 300 299 300 300
267 267 267 268 268 268 268 268 267 267 266 266 265 265 265 265 265 265 266 266 266 267 268 268 269 269 269 270 270 270 271 271 272 273 274 275 277 279 280 281 282 283 284 285 287 288 289 290 290 291 291 292 293 296 301 307 309 309 309 309 309 308 308 307 305 304 303 303 302 302 303 302 301 302 303 303 303 303 303 303 302 300 300 300 300
267 267 267 268 268 267 267 266 266 265 265 265 264 264 264 264 265 265 265 266 266 267 267 268 268 269 269 269 270 270 270 271 272 273 274 275 277 278 280 281 282 283 283 285 286 288 289 290 290 290 291 292 293 295 300 306 308 309 309 309 308 308 308 308 308 306 305 304 302 302 303 303 302 301 303 304 303 302 302 301 301 301 301 301 300
266 267 267 267 267 266 266 265 265 264 264 264 264 264 264 264 264 265 265 266 266 267 267 268 268 269 269 270 270 270 271 271 272 273 274 275 277 279 280 281 282 283 284 284 285 287 289 290 290 290 291 291 292 294 299 305 307 307 308 307 307 307 307 307 308 307 307 305 304 304 304 304 303 302 303 304 303 303 302 301 301 301 301 302 301
266 266 266 266 265 265 264 264 264 263 263 263 263 263 264 264 264 265 265 266 267 267 267 268 268 269 269 270 270 270 271 272 273 274 274 276 277 279 281 282 282 283 283 283 285 287 289 290 290 290 290 291 292 293 298 304 306 306 306 306 306 306 306 306 307 306 307 306 306 306 305 305 305 304 303 304 304 305 304 303 302 302 301 301 301
266 266 265 265 264 264 263 263 263 263 263 263 263 263 264 264 265 265 265 266 267 267 268 268 269 269 269 270 270 271 271 272 273 274 275 276 277 278 280 282 283 283 283 283 284 286 288 289 290 290 290 291 292 292 296 303 306 305 304 305 305 305 305 306 306 306 307 307 307 307 307 306 306 305 305 305 305 304 303 302 301 301 301 300 299
265 264 264 264 263 263 262 262 262 262 262 263 263 264 264 265 265 265 266 266 267 268 268 269 269 269 270 270 270 271 271 272 273 274 275 276 277 278 280 282 282 283 283 283 284 286 288 289 289 290 290 291 292 292 295 301 305 304 304 304 304 304 305 305 305 306 307 307 307 307 307 306 306 306 305 305 305 303 301 300 300 301 301 300 299
264 263 263 262 262 262 261 262 262 262 263 263 264 265 265 265 266 266 267 267 268 269 269 269 270 270 270 270 271 271 272 272 273 275 275 276 277 278 281 282 283 283 283 283 284 285 288 289 290 290 290 291 292 292 294 299 304 304 303 303 303 303 304 304 304 304 305 306 306 306 306 306 305 305 304 303 303 303 303 301 301 301 302 301 299
262 262 261 261 261 261 261 262 262 263 263 264 265 265 266 266 267 267 267 268 268 269 269 270 270 271 271 272 272 272 272 273 274 275 276 277 277 278 280 282 282 282 283 283 284 285 287 289 290 290 290 290 291 292 293 298 303 304 303 303 302 302 303 304 303 303 303 303 304 304 304 304 304 303 302 302 302 304 305 304 302 302 303 302 299
261 261 260 260 260 261 261 262 262 263 264 265 265 266 266 266 267 267 267 268 269 269 270 270 271 272 272 273 273 273 273 273 274 275 276 277 278 279 280 281 281 282 283 284 285 286 287 289 289 290 290 290 291 292 292 296 302 304 304 303 302 302 304 303 303 303 302 302 302 302 302 302 302 302 302 302 302 303 304 305 305 305 305 302 298
260 260 260 260 260 261 262 262 263 264 264 265 265 265 265 266 266 266 267 268 268 269 270 271 272 273 274 275 275 275 275 275 275 276 277 278 279 280 281 281 282 283 284 285 286 287 288 289 289 290 290 290 291 292 292 295 301 303 303 304 304 304 303 302 302 302 302 301 301 300 300 300 300 300 300 300 301 301 302 304 305 306 306 303 299
259 259 259 260 260 261 262 263 264 264 265 265 265 265 265 265 265 266 266 267 268 269 270 272 273 274 275 276 277 277 277 277 276 277 278 278 280 281 282 282 283 283 284 286 287 288 289 289 290 290 291 291 291 293 294 297 300 303 304 304 305 304 303 302 301 301 300 300 299 299 299 299 298 298 299 299 299 300 301 302 304 304 305 306 304
258 258 259 260 261 262 262 263 264 264 264 264 264 265 265 265 265 265 266 267 268 269 271 272 273 274 275 277 278 278 279 279 278 278 279 280 281 282 282 283 284 284 285 286 287 288 289 289 290 290 291 291 292 293 296 299 301 302 303 304 304 304 303 301 300 300 299 299 298 298 298 298 298 298 298 298 298 299 300 302 303 303 303 304 306
258 258 259 260 261 262 263 263 264 264 264 264 264 264 264 264 264 265 266 267 268 269 270 271 273 274 275 276 277 277 278 279 281 281 281 281 282 283 284 285 285 285 286 287 288 289 289 289 290 291 291 292 292 294 297 300 301 302 303 304 304 303 302 300 299 300 299 298 298 298 298 298 298 298 298 298 299 299 300 301 302 303 303 303 304
258 258 259 260 261 262 263 263 264 264 263 263 264 264 264 264 264 265 266 267 267 268 270 271 272 273 274 275 275 276 276 279 281 284 285 285 284 284 285 286 286 287 287 288 288 289 289 290 290 291 291 292 293 294 297 300 302 302 302 303 303 302 301 300 300 299 299 298 299 299 299 298 298 298 298 298 298 298 298 299 300 301 301 302 302
258 258 259 260 261 262 263 263 263 263 263 263 263 263 263 264 264 265 266 266 267 268 270 271 272 273 274 274 274 274 275 278 281 283 285 287 287 287 288 287 288 288 288 288 289 289 290 290 290 291 292 292 293 295 298 300 302 302 302 302 302 301 300 300 299 299 299 299 299 299 299 298 298 298 297 297 297 297 297 298 298 298 298 298 298
257 258 259 260 261 262 262 262 263 262 262 263 263 263 263 263 264 265 266 266 267 269 270 271 271 273 273 273 273 273 275 277 279 280 281 283 286 288 289 289 289 289 289 289 290 290 291 291 291 291 292 293 294 296 298 300 301 301 301 301 301 300 300 300 300 300 300 300 300 300 299 297 297 296 296 296 297 297 297 297 296 296 296 296 296
257 258 260 260 261 262 262 262 262 262 262 262 262 262 262 263 264 265 265 266 268 269 270 270 271 272 272 272 272 273 274 275 277 278 279 281 283 286 289 291 291 290 290 290 291 291 291 291 292 292 292 293 294 296 298 300 300 300 300 300 300 300 300 300 300 300 300 300 300 299 297 296 296 296 296 296 296 296 296 296 296 295 295 295 295
257 258 259 260 261 262 261 261 261 261 261 261 261 261 262 263 264 265 265 266 268 269 270 270 271 272 272 271 271 272 273 274 276 277 279 280 282 284 288 291 292 292 292 292 292 292 292 292 292 292 292 293 294 296 298 299 300 300 300 300 300 300 299 299 300 300 300 300 299 297 296 295 295 295 295 295 295 295 295 295 295 295 294 294 295
257 258 259 260 261 261 261 261 261 261 261 261 261 261 261 262 264 265 265 266 267 268 269 269 271 272 271 271 271 271 273 274 275 276 277 279 281 284 287 290 292 292 292 293 293 292 292 292 293 293 293 294 295 297 299 299 299 299 299 300 300 299 299 299 299 300 300 299 298 297 296 295 295 295 295 295 295 294 294 294 295 294 294 293 294
257 258 259 260 260 261 260 260 260 260 260 260 260 260 261 261 262 264 264 265 266 267 267 268 269 271 271 270 270 271 271 273 274 275 276 277 279 283 287 289 291 292 292 293 294 293 293 293 293 293 294 295 296 298 299 299 299 300 299 299 299 299 299 299 299 299 299 299 298 297 296 295 295 295 295 295 294 294 293 294 294 294 293 293 294
257 258 259 260 260 260 260 260 260 260 260 260 260 260 260 260 261 262 262 263 264 265 265 266 268 269 269 269 270 270 270 272 273 273 274 275 278 282 288 291 291 292 293 293 293 293 294 294 294 295 295 296 297 299 299 299 299 300 300 299 299 299 299 299 299 299 299 298 298 297 296 296 295 295 295 295 294 293 293 293 293 293 293 293 294
257 258 259 259 259 259 259 259 260 260 260 259 259 259 259 259 260 260 260 261 262 263 263 264 265 267 268 268 268 269 269 270 271 272 273 273 275 279 284 287 288 290 292 294 295 295 294 294 295 296 296 297 298 299 299 300 300 300 300 300 299 299 299 299 299 299 299 298 298 297 296 296 296 295 295 295 294 293 293 293 293 293 293 293 293
257 258 259 259 259 259 258 259 259 259 260 259 259 259 259 259 259 259 259 259 260 261 261 261 263 265 266 266 266 267 268 269 269 270 271 271 271 274 279 281 282 282 283 285 288 292 295 296 297 297 297 298 299 300 300 299 300 300 300 300 300 299 299 299 299 299 299 299 298 297 296 296 296 295 294 294 294 294 293 293 293 293 293 293 293
258 258 259 259 259 258 258 258 259 259 259 259 259 258 258 258 259 258 258 259 259 259 259 259 260 263 265 265 265 265 266 267 267 268 268 268 268 270 272 272 272 273 274 274 276 280 284 289 294 297 299 299 299 299 300 300 300 300 299 299 300 299 299 299 299 298 299 298 298 298 297 296 295 295 295 294 294 294 293 293 293 293 293 293 293
257 258 259 259 259 258 258 258 258 259 259 259 258 258 258 258 258 258 258 258 258 258 258 258 259 261 263 264 263 263 263 265 265 265 265 265 265 265 266 265 265 267 268 270 271 272 273 276 281 288 295 299 300 300 300 300 300 300 300 299 299 299 299 298 298 298 298 299 298 298 297 296 296 295 295 295 294 294 294 293 293 293 293 293 293
257 258 258 259 259 258 257 257 258 258 258 258 258 258 258 258 258 258 258 257 258 258 257 258 258 259 261 263 262 261 260 262 262 262 262 262 262 262 263 264 264 264 265 266 269 270 271 271 272 275 281 288 295 299 300 300 299 299 300 300 299 299 299 299 298 298 298 298 298 298 297 296 296 295 295 295 295 294 294 294 294 294 293 293 293
257 257 258 259 258 258 257 257 257 257 258 258 257 258 258 257 257 257 257 257 257 257 257 257 257 258 260 262 262 259 258 259 259 260 259 259 260 261 262 262 263 264 264 265 266 268 270 270 270 271 272 276 282 290 295 299 300 299 299 299 299 299 299 298 298 298 298 298 298 298 297 297 296 296 296 295 295 295 295 294 294 294 293 293 293
258 257 258 258 258 257 257 257 257 257 257 257 257 257 257 257 257 257 257 257 257 257 256 257 257 257 259 262 262 259 257 257 257 257 257 258 258 259 261 261 262 263 264 264 264 267 269 269 269 270 271 271 274 278 284 290 295 298 299 298 299 299 299 298 298 298 298 298 298 298 297 297 296 296 296 296 295 295 295 295 294 294 294 293 293
258 258 257 257 257 257 256 256 256 256 256 257 257 257 257 257 257 256 256 256 256 256 256 256 256 256 259 262 262 259 256 256 256 256 256 257 257 258 260 261 261 261 262 263 263 265 267 268 269 269 270 270 271 273 275 280 286 292 297 298 299 298 298 298 298 298 298 298 299 298 298 297 297 296 296 296 296 296 295 295 295 294 294 294 294
258 258 257 257 256 256 256 256 256 256 256 256 256 256 256 256 256 256 256 256 255 255 255 255 256 256 258 261 262 259 256 256 256 256 256 256 256 257 259 260 260 261 261 262 263 264 266 267 268 268 269 269 270 270 272 274 277 281 287 292 296 298 298 298 298 298 298 298 298 298 298 297 297 296 296 296 296 296 295 295 295 295 294 294 294
259 258 257 257 257 256 256 256 256 256 256 256 256 256 256 256 256 256 256 256 255 255 255 255 255 256 257 259 260 258 256 255 255 255 255 256 256 256 258 259 260 261 261 261 262 263 265 266 267 268 268 269 269 269 270 271 272 274 277 281 285 289 292 294 296 297 298 298 297 298 297 297 297 297 296 296 296 296 295 295 295 294 294 294 294
259 258 257 257 256 256 255 255 255 255 255 255 255 255 255 255 255 255 255 255 255 254 254 254 254 255 256 257 257 256 256 255 255 255 255 255 256 256 257 258 259 260 261 261 262 263 264 266 266 267 268 268 269 269 269 269 270 271 272 274 276 279 282 286 289 293 295 296 297 297 297 297 297 297 296 296 296 296 295 295 294 294 294 293 293
260 259 258 257 257 256 256 255 255 255 255 255 255 255 255 255 255 255 255 255 255 254 254 254 254 254 254 255 255 255 255 255 254 255 255 255 255 256 257 258 259 260 260 261 261 262 264 265 266 266 267 268 268 269 269 269 269 270 270 271 273 274 277 279 282 286 290 294 296 296 296 296 296 296 296 296 295 295 295 294 294 293 293 293 293
260 259 259 258 257 257 256 256 255 255 255 255 255 255 255 254 254 254 254 254 254 254 254 254 254 253 254 254 254 254 254 254 254 254 254 255 256 256 257 258 259 259 260 261 261 262 263 264 265 266 267 267 268 268 269 269 269 269 270 270 271 272 274 276 279 283 287 292 294 294 295 295 295 295 295 295 295 295 295 295 294 293 293 293 293
260 260 259 259 258 257 257 256 255 255 254 254 254 254 254 254 254 254 254 254 254 253 253 253 253 253 253 253 253 254 254 254 254 254 255 255 256 256 257 258 259 259 260 261 262 263 263 264 265 266 266 267 267 268 268 268 269 269 269 270 270 272 273 275 278 282 286 289 292 293 293 294 294 294 294 294 294 294 294 294 294 293 293 293 293
260 260 259 259 258 258 257 256 255 255 254 254 254 253 253 254 254 254 254 254 254 253 253 253 253 253 253 253 254 253 253 254 254 255 255 256 257 258 258 258 259 260 260 261 262 263 263 264 265 265 266 266 267 267 268 268 268 269 269 269 270 272 273 275 277 280 283 285 288 290 292 292 292 293 293 293 293 294 294 293 293 293 293 293 293
260 260 259 259 259 258 257 256 255 255 254 254 253 253 253 253 253 253 253 253 253 253 253 253 253 253 253 254 254 254 254 255 255 256 256 257 258 259 260 259 259 259 261 261 262 263 264 264 265 265 265 266 266 267 267 268 268 268 268 269 270 272 274 276 276 277 279 282 284 285 287 288 288 289 290 291 292 292 292 292 292 293 293 293 293
260 260 259 259 258 258 257 256 255 254 254 253 253 253 253 253 252 253 253 253 253 253 252 253 253 253 253 254 254 254 255 255 255 256 257 258 258 260 261 261 260 260 261 262 262 263 264 264 265 265 265 266 266 267 267 267 268 268 268 268 269 272 274 275 276 276 278 279 280 281 282 282 283 283 284 286 288 289 289 289 289 290 290 291 291
259 259 259 259 258 258 257 256 256 255 254 254 253 253 253 253 252 252 252 252 252 253 252 252 253 253 253 253 254 254 255 255 255 256 257 258 258 260 261 262 262 262 262 262 262 263 263 264 265 265 265 266 266 266 267 267 267 268 268 268 269 271 272 274 275 276 276 277 277 277 278 278 278 278 279 280 282 283 284 284 285 286 286 287 287
259 259 259 259 258 258 258 257 257 256 255 255 254 253 253 253 252 252 252 252 252 252 252 252 253 253 254 254 254 254 255 255 256 256 257 257 258 259 261 261 262 263 263 263 263 263 263 264 264 265 266 266 266 266 266 266 267 267 268 268 268 269 270 272 273 274 275 275 275 275 275 275 274 274 275 275 276 277 277 278 280 281 281 282 283
Wind_Speed
31 32 34 34 35 36 36 37 37 37 38 38 38 40 39 39 39 39 39 38 37 37 36 35 35 35 35 35 34 34 34 36 35 34 32 31 30 30 31 32 29 26 23 23 25 24 24 26 27 28 29 30 36 37 39 41 41 41 41 40 38 39 38 26 15 12 16 28 35 39 48 51 48 48 49 48 52 55 53 54 54 53 54 53 51
32 32 33 34 35 36 37 38 38 38 39 39 39 39 39 39 37 37 37 37 36 35 35 35 34 34 35 35 35 34 35 37 37 35 31 30 30 29 30 31 28 25 22 22 24 24 24 25 26 28 29 30 35 37 40 41 40 39 38 37 32 33 36 28 19 13 12 22 33 37 44 49 47 47 50 51 53 54 54 54 54 54 55 55 54
32 33 33 34 35 36 38 38 38 38 38 39 39 39 39 37 34 34 35 36 35 35 35 35 35 35 36 37 37 36 35 36 35 34 31 28 28 28 28 30 29 26 22 22 23 24 24 25 25 27 28 29 35 38 43 42 41 40 38 39 36 34 36 33 28 19 12 18 31 37 40 44 45 47 51 54 55 54 53 54 55 55 55 55 55
32 32 33 34 35 36 38 38 38 38 38 38 38 38 37 34 33 33 34 35 35 35 35 35 35 35 35 35 34 33 32 31 31 32 30 27 26 27 27 28 30 27 23 22 23 24 24 25 25 26 26 29 34 37 43 41 42 43 40 41 41 38 37 36 37 33 23 18 25 38 43 42 42 45 47 49 51 53 53 53 53 54 55 56 55
32 32 33 35 36 36 37 38 38 37 37 37 37 36 34 33 32 33 33 34 35 35 35 34 32 31 30 29 29 28 27 27 29 32 32 29 27 26 27 27 29 29 27 25 24 24 25 25 25 24 24 29 32 35 43 42 43 42 40 40 39 39 38 35 38 40 35 25 22 30 38 37 36 41 45 45 45 45 47 50 52 52 54 54 54
31 32 33 34 37 38 38 37 36 36 37 36 35 35 34 33 32 31 31 33 35 34 33 32 30 30 30 29 29 28 29 30 32 33 33 32 29 27 27 27 28 30 29 26 25 25 25 24 24 24 23 29 32 33 43 43 43 42 40 39 38 38 37 35 36 39 38 35 31 29 32 34 34 37 43 48 47 43 41 43 46 49 51 51 52
32 33 33 34 34 35 36 36 35 35 36 36 35 34 33 32 31 31 31 32 34 33 33 32 32 32 32 31 31 31 32 33 32 32 32 31 29 28 27 26 27 29 28 27 26 26 25 24 24 25 24 30 33 32 43 44 42 44 42 40 39 38 35 34 36 36 34 33 32 32 31 33 35 36 40 45 44 43 43 39 37 42 48 50 50
33 33 34 34 33 33 34 34 34 35 35 35 34 32 31 32 32 31 31 33 33 33 34 35 34 33 32 32 32 31 31 32 32 31 31 30 29 28 27 26 26 27 28 27 26 25 25 24 25 26 26 30 35 30 43 47 42 42 43 41 41 40 35 34 33 33 33 30 28 32 32 28 28 30 34 35 32 33 41 42 38 38 43 45 46
32 32 32 33 34 34 33 33 33 35 35 34 32 32 33 33 33 32 33 33 33 34 35 36 35 35 33 31 30 30 30 30 29 28 27 27 27 26 25 25 26 27 28 28 26 25 25 25 25 27 28 31 37 32 36 52 48 43 42 41 42 41 36 35 33 30 29 25 22 27 27 24 26 27 30 36 36 36 41 42 37 35 37 36 37
31 31 31 32 34 35 34 33 33 34 34 33 33 35 36 35 34 34 35 35 34 34 35 34 33 32 32 30 29 28 28 28 27 26 26 26 27 26 25 26 27 27 27 28 27 26 25 25 26 27 31 33 35 34 29 48 53 49 48 46 46 45 39 35 34 32 28 21 21 25 19 17 29 36 36 39 41 40 41 40 36 35 33 28 25
31 31 32 33 35 35 35 36 35 35 35 36 37 38 38 37 36 36 37 36 35 33 32 31 31 30 30 29 29 28 28 28 29 29 29 29 29 28 26 25 25 25 26 26 27 27 26 26 27 27 30 33 32 32 26 41 51 49 51 51 50 51 47 39 34 35 32 24 25 30 22 18 32 41 39 38 38 41 43 41 39 37 33 24 18
31 32 32 34 35 36 37 37 38 39 38 38 39 39 39 38 37 37 38 36 34 32 31 30 30 30 30 29 29 29 30 30 31 31 31 31 30 30 28 25 24 25 26 26 26 27 27 27 28 27 28 32 31 30 26 37 50 48 50 52 52 55 55 51 44 39 37 31 28 31 31 30 34 39 41 42 41 41 42 41 41 40 36 28 22
30 32 33 33 35 37 38 38 39 39 39 40 41 41 39 38 37 36 36 36 33 31 31 31 30 30 30 30 29 30 31 31 31 31 31 30 29 30 29 27 26 26 27 27 26 26 27 26 27 28 29 31 30 29 26 34 48 49 51 53 54 55 56 58 57 52 47 41 34 34 37 38 39 42 47 48 44 40 38 38 40 41 37 33 30
31 32 33 33 35 37 38 38 39 39 39 41 42 41 39 38 39 37 36 34 33 31 30 30 30 30 30 30 30 30 30 31 30 30 30 29 28 28 28 27 26 26 26 27 26 27 27 26 26 27 29 31 29 27 25 30 43 47 48 50 51 55 55 55 57 58 56 51 45 42 42 44 46 48 49 50 50 48 44 42 42 41 37 33 32
30 31 33 33 35 36 37 38 38 38 40 41 40 39 38 38 41 40 36 33 32 31 29 29 30 31 30 29 29 31 32 32 30 30 30 29 28 28 28 27 26 25 26 28 28 28 28 26 26 27 29 31 30 27 25 28 38 41 43 44 46 51 53 53 56 57 57 57 57 56 54 52 53 53 53 54 57 56 53 50 46 41 35 29 28
29 30 32 33 35 37 36 37 38 39 41 42 39 39 41 43 44 42 36 34 33 31 29 29 31 33 33 31 29 31 34 33 30 29 31 30 28 27 27 26 25 25 27 29 29 29 29 27 27 28 29 31 30 27 26 27 35 38 38 40 41 44 49 53 57 58 58 58 58 60 61 59 59 60 62 62 60 53 46 41 40 38 34 27 24
29 30 32 33 36 37 36 36 39 41 43 41 39 41 45 47 47 45 39 35 32 30 29 31 34 33 32 32 29 29 35 36 30 28 29 29 27 27 27 26 25 24 25 27 28 29 29 29 29 29 29 30 30 27 27 25 34 39 36 36 36 37 42 46 50 53 56 56 56 58 60 60 60 63 66 64 60 53 43 36 39 42 34 21 17
30 31 33 33 35 36 37 37 39 41 42 41 40 43 45 43 44 45 40 34 31 33 35 36 39 37 34 35 32 29 34 38 32 28 29 28 27 27 26 24 23 22 23 25 27 29 29 29 30 31 30 30 30 28 27 25 34 40 37 35 34 33 37 40 42 43 44 45 49 52 55 58 59 60 62 59 57 57 53 46 45 44 34 21 18
30 31 31 33 34 36 38 39 39 40 41 41 40 41 41 39 38 38 34 30 31 36 37 37 41 42 38 38 36 31 34 38 35 29 29 29 28 28 26 22 20 21 21 23 26 29 30 30 31 32 32 31 31 30 29 26 33 41 40 37 31 31 39 42 41 40 37 34 37 43 48 54 56 57 58 56 54 59 61 57 53 48 37 29 26
29 29 30 34 36 38 39 39 39 39 40 40 40 39 37 36 35 33 31 30 29 31 32 32 37 41 40 38 37 34 34 38 38 33 29 29 29 28 27 24 21 21 21 22 23 26 29 30 30 31 32 30 31 32 30 28 33 41 43 39 34 35 42 43 41 42 39 35 36 39 42 47 50 53 56 56 56 58 59 58 60 56 45 35 33
28 30 33 36 38 38 38 38 39 39 38 38 38 38 36 34 33 32 31 30 29 29 31 30 30 35 38 35 33 34 35 36 37 35 31 30 30 29 28 26 24 22 21 21 22 22 24 27 28 29 30 28 30 31 29 29 34 41 44 46 46 44 44 42 40 41 40 37 37 37 38 41 44 48 53 55 57 57 54 56 62 61 53 45 40
29 32 35 36 37 38 38 38 38 37 37 37 37 36 35 33 32 32 30 29 28 28 29 28 25 26 30 29 27 30 32 33 34 35 32 31 31 31 31 29 27 25 23 22 22 22 23 25 25 26 27 26 28 30 29 29 34 43 48 49 46 45 45 44 41 39 37 37 38 36 36 39 40 42 46 49 52 53 50 52 57 55 53 54 52
32 33 34 35 35 37 37 37 36 36 36 37 36 34 35 33 31 31 29 27 27 26 24 25 26 24 24 25 24 26 29 29 30 33 33 31 32 33 34 33 31 29 26 23 22 21 22 24 25 25 25 25 27 29 28 29 35 45 48 44 42 45 48 44 41 39 36 35 35 34 36 39 40 41 44 46 49 51 48 49 52 50 47 49 53
32 32 33 34 34 35 36 35 35 35 36 36 34 33 34 33 29 29 28 25 24 25 25 26 25 23 22 23 25 27 28 28 27 30 32 32 31 32 34 35 33 32 29 25 23 22 22 24 24 23 24 25 27 29 29 30 38 46 45 43 45 47 45 41 40 40 36 33 33 33 36 41 42 42 45 48 49 49 46 46 49 51 47 47 49
31 31 32 33 33 34 34 33 33 33 35 35 33 32 32 31 29 28 26 24 24 24 24 25 24 23 22 22 25 28 29 27 28 28 29 31 32 32 33 33 33 33 31 27 25 25 26 25 24 23 24 26 27 29 30 31 39 45 43 43 46 45 41 40 40 38 34 32 34 35 37 42 43 43 46 47 46 44 42 42 44 46 45 44 45
30 30 31 31 32 32 32 32 32 32 32 33 33 33 31 29 28 27 25 24 24 22 22 24 23 22 21 21 24 28 29 26 26 28 25 24 27 29 31 31 31 32 31 29 28 28 28 28 26 25 27 28 28 29 29 31 40 46 44 43 44 43 41 40 38 35 33 35 36 36 37 39 39 39 41 43 44 44 44 42 40 40 39 38 37
28 29 30 30 30 30 31 31 32 32 31 31 32 33 32 30 28 26 25 25 23 20 20 23 22 19 20 22 24 26 28 24 23 28 30 27 25 24 26 28 29 29 29 28 28 28 29 28 27 27 28 28 29 30 30 29 37 43 42 41 42 42 42 44 44 42 40 38 37 35 35 36 35 36 39 42 43 44 44 43 39 37 38 36 32
25 27 27 27 28 28 30 30 31 31 31 31 30 29 30 30 28 26 26 27 26 24 23 22 22 21 21 23 23 22 24 25 26 30 33 31 30 27 22 22 23 24 26 26 26 27 26 25 25 26 27 26 26 27 26 26 32 36 37 39 41 43 44 45 45 43 40 37 34 31 32 35 36 38 40 41 39 40 41 42 39 38 38 35 30
24 24 25 25 25 27 29 30 30 30 31 32 31 30 28 27 26 28 31 32 31 31 30 26 26 25 23 23 22 18 18 25 32 36 36 33 30 28 24 20 20 21 22 24 24 24 22 20 20 21 22 21 21 21 20 21 26 30 35 37 38 39 40 40 39 37 35 34 32 32 35 37 37 38 39 36 36 38 41 40 38 36 37 35 31
22 23 23 24 24 26 27 28 30 31 30 31 33 35 35 32 28 29 33 35 36 37 34 31 31 31 27 26 26 23 23 30 38 40 39 36 32 26 23 21 19 18 19 21 22 20 17 16 17 18 18 17 16 15 15 18 22 26 31 35 35 35 37 38 38 37 35 34 35 36 37 36 35 36 37 35 34 36 39 40 39 37 36 34 30
20 21 22 23 24 25 25 26 27 29 30 30 30 31 35 39 41 39 36 35 38 40 39 36 35 35 34 33 32 31 34 39 42 42 40 39 34 25 20 21 21 20 21 20 20 19 16 12 12 16 18 16 14 14 15 18 21 25 28 31 34 36 37 37 37 37 36 35 36 36 36 37 37 37 38 37 35 35 36 38 38 37 37 36 31
19 20 21 21 22 23 23 24 25 26 28 30 30 29 29 33 40 46 47 42 38 38 41 41 39 39 41 40 37 37 39 41 42 42 41 40 36 24 12 11 15 19 24 22 16 14 15 12 9 13 16 15 14 17 18 20 23 26 27 27 29 34 37 38 39 39 38 36 35 35 36 36 37 38 39 38 35 34 35 36 36 35 34 32 32
17 19 19 20 22 23 22 23 24 25 26 27 28 29 28 25 26 35 46 51 52 51 50 47 42 40 44 46 43 41 42 43 44 43 42 43 40 30 20 14 11 5 11 19 16 12 14 13 11 13 16 16 16 18 20 22 25 27 28 28 29 32 36 38 39 39 38 36 36 36 35 35 35 35 36 37 36 35 35 36 36 34 31 29 30
16 17 17 18 20 22 22 22 22 23 24 25 25 26 27 26 24 24 29 36 42 48 53 55 50 43 43 47 49 46 44 45 45 43 44 46 44 37 35 33 31 30 22 10 4 6 10 12 13 15 17 17 18 19 21 23 25 26 28 30 30 31 33 34 35 36 36 36 35 34 34 35 34 33 33 34 35 34 34 34 34 33 31 30 29
17 17 17 18 19 20 21 21 22 21 22 24 25 25 26 27 25 22 21 21 21 25 38 52 53 45 41 45 49 48 45 45 45 45 46 48 48 47 46 37 29 29 31 27 19 12 8 6 8 15 18 19 19 19 21 23 25 26 27 28 28 30 31 33 35 36 36 35 34 34 35 35 36 36 35 34 34 32 31 33 35 34 33 31 29
17 17 18 19 19 20 20 20 20 20 20 21 23 24 25 27 25 23 23 23 19 20 31 44 49 46 42 42 48 51 46 41 42 46 47 48 49 49 41 27 20 20 21 21 21 20 20 19 14 7 8 16 20 21 22 23 24 26 28 28 28 29 31 34 35 35 35 35 34 35 36 35 35 37 35 34 35 35 33 34 35 34 34 33 31
16 16 18 18 18 19 20 20 19 19 19 21 22 23 25 27 27 26 27 26 22 23 30 36 42 47 46 44 48 51 45 40 47 58 59 55 53 49 38 26 23 23 22 22 21 20 23 28 30 26 18 6 7 15 20 24 24 25 28 29 30 31 33 35 36 36 35 34 33 34 35 35 36 38 36 33 34 34 33 34 35 34 35 35 32
14 14 15 15 16 17 19 20 20 20 20 21 22 23 24 25 26 26 28 27 25 26 28 28 33 42 44 41 43 48 50 52 60 66 63 57 51 44 37 32 29 27 29 32 29 23 24 31 34 34 35 29 17 6 6 16 22 24 27 28 30 33 35 35 36 36 35 34 33 33 34 34 35 37 37 34 33 32 32 33 33 31 31 32 31
15 14 14 13 15 16 18 19 19 20 21 21 22 22 22 24 25 25 26 26 27 29 30 29 31 38 39 37 41 48 51 51 48 48 51 53 48 39 35 35 33 28 30 39 40 30 26 30 32 32 37 39 33 25 17 5 8 18 25 27 27 29 31 31 33 34 35 34 34 35 35 34 35 37 37 35 34 33 33 32 33 31 30 30 32
14 15 15 14 15 16 17 18 19 20 20 21 21 21 21 21 23 24 25 27 29 31 32 33 36 38 36 35 39 43 43 40 37 40 47 52 50 43 37 36 35 32 31 38 44 37 29 29 31 31 34 38 38 35 30 24 13 3 14 22 24 26 28 30 32 34 35 35 35 35 36 36 36 36 36 35 35 36 35 34 34 34 33 33 34
13 14 14 14 15 16 17 18 19 19 19 19 20 20 20 21 22 22 24 26 30 31 33 36 40 40 37 36 38 41 41 41 42 45 47 49 51 49 41 34 35 35 34 37 42 38 31 31 33 32 32 36 38 36 34 33 29 21 10 5 12 19 24 28 30 32 34 35 35 35 35 36 36 36 36 36 36 36 35 34 33 32 32 32 32
13 13 14 14 15 16 17 18 18 18 19 19 20 20 20 20 21 22 22 25 28 30 32 37 41 42 39 36 37 41 45 46 46 47 49 50 51 49 43 37 35 36 35 35 37 37 34 33 34 35 35 36 36 36 36 35 34 32 27 20 11 6 9 14 19 25 29 31 32 34 35 36 37 38 38 37 35 33 33 32 31 31 30 30 30
12 12 13 13 14 15 15 16 17 17 18 18 19 19 20 20 21 21 21 24 27 29 31 35 39 40 40 40 40 44 47 47 46 47 49 49 48 46 42 39 37 37 37 37 37 37 36 36 36 36 36 36 35 36 36 34 33 33 33 30 26 20 14 8 4 11 19 24 27 30 33 35 36 36 35 35 35 33 32 31 30 30 29 29 29
12 12 12 12 13 14 14 15 16 16 16 17 17 19 20 20 21 21 21 23 26 27 29 31 35 37 39 42 43 45 46 46 45 46 47 48 48 46 42 40 39 39 38 40 40 40 40 39 38 38 38 37 37 37 36 36 35 34 33 33 31 28 23 18 12 4 7 16 21 23 26 28 30 30 29 30 32 32 30 30 29 29 29 28 27
11 12 12 13 14 15 15 16 16 16 16 18 19 20 21 21 21 21 21 22 24 25 27 30 33 34 36 39 41 43 44 44 44 44 45 46 49 47 43 41 42 41 39 40 42 42 42 41 40 40 39 39 38 38 38 39 39 37 35 35 33 30 27 23 18 11 5 10 16 19 20 21 23 23 22 24 27 27 27 27 28 27 27 27 27
10 11 12 13 14 15 15 16 16 17 18 18 18 19 20 21 21 21 21 21 23 24 26 30 33 34 35 37 38 39 40 41 42 43 44 45 48 47 44 42 42 42 41 41 42 43 43 42 41 40 39 38 39 39 39 40 41 40 39 38 36 32 29 25 22 17 12 9 12 16 18 17 18 19 19 20 22 23 22 23 25 26 26 28 28
9 10 11 12 13 14 15 15 16 17 17 18 18 18 19 19 20 21 21 21 22 24 25 28 31 32 34 35 36 37 37 38 40 42 44 44 45 46 45 44 43 43 42 42 42 43 44 43 42 41 40 40 40 41 41 42 43 42 42 41 40 36 32 29 27 24 20 16 14 15 16 16 16 16 17 18 19 19 19 19 21 23 24 24 24
7 8 10 11 12 13 14 15 16 16 17 18 17 17 18 18 19 20 21 21 22 24 25 26 28 31 33 34 34 35 36 37 39 41 42 43 44 44 45 45 44 43 42 42 42 42 43 43 43 43 42 42 41 42 43 43 44 44 43 42 41 37 33 31 31 29 25 23 21 19 18 18 17 15 15 16 16 16 16 16 17 19 20 20 20
6 7 9 10 11 13 13 14 15 15 16 16 17 17 17 18 18 19 21 21 21 22 24 25 27 30 32 32 33 34 35 37 38 39 40 41 41 42 43 43 43 43 42 41 40 40 42 42 42 43 43 43 43 43 43 44 44 44 43 42 41 38 35 33 32 31 29 28 28 26 25 24 23 21 18 17 16 16 15 14 13 14 15 14 16
4 6 8 9 10 11 12 12 13 14 14 16 17 17 17 18 18 19 20 21 21 22 23 24 25 28 29 30 32 33 34 35 35 36 38 39 39 39 40 41 42 43 43 41 39 39 40 41 41 42 43 43 43 43 44 44 44 43 43 42 41 40 38 36 35 33 33 33 32 31 30 30 29 27 25 23 21 19 18 17 16 15 14 13 12
3 4 6 7 8 10 11 12 13 14 15 16 17 17 17 18 18 18 19 19 20 21 22 23 24 25 27 28 29 30 31 33 33 34 35 36 36 36 37 38 39 42 43 42 40 39 39 40 40 40 41 42 44 44 44 44 44 44 43 44 44 43 42 40 39 37 35 35 35 35 34 34 34 32 29 27 26 25 24 22 20 20 19 17 15
Wind_Direction
315 314 313 313 312 311 311 311 311 310 309 308 306 305 305 305 302 300 299 297 296 295 293 293 292 292 291 290 289 290 291 292 291 290 289 289 288 289 293 287 271 261 265 268 271 269 269 270 269 269 267 269 268 242 201 183 183 182 181 182 181 175 171 168 160 151 164 171 170 171 173 173 174 176 176 175 176 179 181 182 181 180 181 184 187
315 314 313 312 311 311 311 311 311 311 310 309 308 307 307 306 303 301 299 297 297 295 294 293 292 291 290 288 287 288 289 291 290 288 286 286 287 289 292 290 278 265 264 268 270 272 273 271 271 273 270 273 268 237 198 182 180 179 181 181 177 176 175 169 157 147 149 159 163 167 172 173 173 175 177 175 175 178 180 182 182 182 183 184 186
315 314 314 312 311 312 312 312 312 312 311 310 309 309 308 307 304 301 300 299 297 296 294 293 292 291 289 287 286 286 286 286 286 285 283 282 285 286 288 291 285 270 261 266 269 272 276 273 274 276 275 280 270 231 196 181 179 178 180 179 176 181 182 172 161 155 148 153 160 164 170 174 174 175 178 177 177 178 179 181 183 184 185 186 187
316 316 314 312 312 313 313 314 314 312 312 311 310 310 308 307 305 302 300 300 298 297 297 295 293 290 287 286 285 283 282 282 283 284 283 283 283 283 284 288 287 277 266 266 269 271 275 275 278 280 280 286 270 225 192 181 180 179 180 180 178 181 181 176 167 160 152 152 163 168 169 172 175 176 176 175 176 178 179 181 183 184 186 188 189
318 316 315 314 314 314 314 315 314 313 312 311 310 310 309 307 306 303 301 300 299 299 299 297 294 291 287 286 285 283 282 282 284 285 284 284 282 281 282 282 285 283 275 269 268 271 275 277 282 284 283 288 270 220 189 182 181 180 180 179 178 178 177 176 170 162 156 154 157 166 168 167 170 175 175 173 172 174 177 181 183 185 187 189 190
318 316 316 316 315 315 315 315 314 313 313 312 311 310 309 307 306 305 302 301 299 298 297 296 293 290 287 286 284 283 283 283 283 281 280 282 280 278 280 280 282 282 275 270 270 273 276 279 288 289 285 288 271 219 188 182 181 179 180 177 174 173 171 171 170 165 159 156 153 158 165 166 165 171 176 175 172 169 171 177 184 186 188 188 190
318 318 318 316 313 312 313 314 313 311 312 313 312 310 309 309 308 307 305 302 299 298 296 294 292 289 286 285 282 282 283 281 278 276 276 277 276 276 278 279 281 281 277 274 273 274 277 279 289 292 287 290 277 226 189 181 181 180 179 175 170 169 167 166 167 164 158 155 156 158 163 167 167 170 176 177 175 171 169 171 179 185 188 189 189
319 319 319 317 312 309 310 312 312 312 312 313 312 310 310 310 309 307 306 303 299 297 295 294 292 290 286 284 282 280 280 279 276 273 273 273 272 272 273 273 277 280 279 277 273 272 277 279 285 292 288 289 286 244 194 181 181 180 178 174 169 166 165 164 164 162 157 155 158 160 160 163 164 164 167 170 171 173 174 174 176 181 186 188 189
319 320 318 315 313 310 310 310 312 314 315 314 313 312 312 312 311 308 305 303 299 296 294 292 290 289 286 283 281 280 278 275 273 270 269 271 269 267 267 269 272 275 277 278 276 273 276 279 281 289 290 289 292 274 212 186 180 179 176 173 170 166 164 164 163 161 158 155 158 160 158 160 160 157 163 173 178 179 177 176 175 178 179 180 185
321 320 317 315 314 313 313 314 315 316 316 315 314 313 312 312 312 309 305 302 299 295 292 290 288 287 286 284 281 279 276 272 270 269 269 271 270 266 264 266 267 270 272 274 276 275 274 279 281 287 293 290 293 292 242 195 182 179 177 175 172 168 164 165 165 162 160 157 159 161 160 165 169 170 176 180 180 177 175 172 170 171 171 170 178
322 319 316 315 317 317 317 318 318 317 316 316 315 315 314 313 311 310 307 303 299 295 292 289 287 285 284 284 281 276 273 270 268 269 269 270 270 267 263 263 263 265 268 267 271 275 274 279 282 284 293 292 293 300 266 205 185 180 179 177 175 172 168 167 166 164 163 162 163 167 169 173 176 178 178 177 176 177 177 173 168 167 170 170 175
321 318 317 318 319 320 321 320 319 318 318 317 317 317 317 314 312 310 308 304 299 295 291 288 286 285 282 281 281 276 272 270 268 268 269 268 268 266 264 265 263 262 265 264 265 271 271 276 280 281 288 290 293 303 278 215 190 181 180 179 178 178 175 172 171 167 166 164 166 173 176 174 175 179 178 176 177 178 177 174 171 172 175 177 175
321 319 319 321 321 322 323 321 320 319 319 319 318 318 316 314 313 309 304 301 299 294 290 286 284 285 283 280 280 277 274 272 269 268 269 267 265 264 260 259 259 257 260 262 262 266 267 270 276 278 282 286 291 302 282 222 193 183 183 181 180 182 181 179 178 175 172 169 169 176 179 174 173 180 181 178 174 173 174 175 176 176 177 179 179
323 321 321 323 323 324 324 323 321 319 318 319 319 318 316 314 313 309 302 299 296 291 287 284 280 282 282 279 279 278 274 273 270 267 268 267 264 263 257 253 253 253 256 260 261 263 262 264 270 273 278 283 287 297 281 226 195 184 182 181 181 182 183 183 182 179 177 175 174 178 181 180 178 180 182 179 176 176 176 177 178 178 177 178 178
323 323 323 324 325 325 325 323 321 319 318 319 318 316 315 314 312 309 303 298 293 286 283 284 280 280 281 277 276 275 272 272 271 268 268 267 264 262 258 252 250 252 256 258 257 258 258 258 262 266 272 278 281 290 280 231 196 182 180 181 182 183 184 185 185 182 181 181 180 179 181 184 183 180 180 182 183 183 182 180 178 173 168 165 167
325 326 325 325 326 326 325 323 321 320 319 318 316 315 315 314 311 308 301 295 293 287 282 284 285 284 282 277 273 272 271 272 272 269 266 266 265 261 257 254 252 251 255 256 254 255 255 253 257 260 264 271 274 284 280 237 197 180 178 182 183 184 186 188 188 186 186 186 185 183 183 185 184 183 184 184 185 184 178 171 168 163 160 158 160
328 327 326 325 326 326 325 322 320 319 319 317 316 315 315 313 312 310 304 295 292 290 286 289 292 287 279 273 268 267 270 273 272 269 267 264 262 260 255 253 253 251 252 254 253 253 251 249 251 253 257 264 267 276 281 246 200 180 177 181 183 185 188 190 190 189 189 188 187 185 183 183 184 185 186 184 182 178 167 161 165 167 165 163 163
328 327 326 325 324 324 325 322 319 319 318 317 316 316 315 314 313 312 306 295 293 298 298 297 297 293 284 277 270 263 268 275 273 267 266 263 259 258 254 248 248 249 252 254 253 252 249 246 246 247 251 258 261 269 278 249 202 182 177 179 183 186 188 188 188 190 191 190 187 185 183 183 183 184 184 183 181 178 174 173 173 170 169 174 171
328 326 323 321 322 323 324 322 320 319 318 317 318 318 317 316 316 314 309 301 298 302 303 300 298 297 292 285 278 266 264 273 275 267 264 261 256 255 255 251 249 249 251 252 251 249 246 243 244 244 247 254 259 265 273 252 207 185 178 179 183 188 187 185 184 185 187 187 184 181 180 181 181 180 181 182 182 183 184 181 175 173 175 176 166
325 322 320 322 323 324 324 323 321 321 319 319 322 322 321 320 319 318 315 309 303 301 302 299 296 297 296 289 282 274 267 269 272 269 263 259 254 249 248 248 248 247 248 246 243 243 241 239 241 243 244 252 257 260 267 255 216 191 180 180 186 189 185 182 182 181 179 178 176 176 176 176 177 177 179 181 185 187 188 184 180 180 179 171 168
324 322 323 325 325 325 326 324 323 323 322 322 324 324 324 323 321 320 318 313 308 305 303 299 293 295 300 295 285 278 273 271 272 271 263 256 252 247 241 240 241 242 245 243 237 235 237 236 238 241 241 249 255 257 263 254 223 197 186 188 190 186 179 177 178 177 174 171 169 170 171 172 174 177 179 182 186 188 188 186 185 185 182 176 175
326 326 326 327 328 328 328 327 326 326 326 327 327 326 326 326 323 324 323 317 312 309 306 305 303 302 304 304 297 289 283 275 271 270 265 256 251 247 241 238 238 239 242 243 237 234 236 237 238 240 241 247 253 254 258 253 226 204 195 193 188 180 175 174 173 172 169 167 165 165 168 171 175 179 181 183 186 187 187 187 186 186 186 185 186
330 329 329 330 330 330 330 330 330 330 330 331 331 328 329 329 327 329 329 323 320 321 317 316 316 313 310 311 312 308 301 289 274 267 265 258 250 246 242 238 236 235 237 240 238 236 238 241 242 242 243 249 253 253 257 251 226 207 199 192 182 177 175 171 168 167 167 166 165 166 171 175 178 181 183 184 185 186 187 186 187 188 188 189 193
334 333 332 332 332 332 333 333 333 334 334 335 334 333 332 331 331 334 336 334 332 329 325 323 323 319 316 318 320 319 315 307 292 277 267 259 252 245 240 237 235 234 235 238 238 237 238 240 243 245 246 251 253 255 258 248 224 208 199 189 181 177 172 168 167 167 166 167 170 172 177 180 181 182 184 184 185 186 186 186 188 190 190 192 195
336 335 334 334 335 335 335 335 337 338 339 339 339 337 335 333 335 339 340 341 336 327 324 327 327 322 322 324 324 322 319 318 314 301 278 262 254 247 240 238 235 233 234 237 236 237 239 241 244 247 249 253 255 256 259 246 222 207 198 187 180 174 171 169 170 169 168 172 176 179 182 183 183 183 183 182 182 183 184 184 187 190 191 193 197
337 336 336 336 338 339 339 339 339 340 342 344 344 341 338 336 337 340 343 341 331 321 325 331 326 323 329 331 327 325 323 322 327 327 310 281 264 253 243 239 236 231 231 234 235 237 240 241 243 246 248 251 252 254 256 241 216 204 196 186 177 174 173 172 170 171 175 179 181 182 182 182 181 180 178 177 180 183 183 182 184 187 189 191 193
338 336 337 338 340 343 343 342 341 342 344 346 347 346 344 342 341 342 343 339 326 321 333 336 327 326 336 335 329 329 328 327 332 336 333 321 302 279 253 239 233 229 227 229 232 235 237 238 241 243 247 251 252 254 253 235 210 198 191 183 178 176 177 176 176 178 181 182 182 180 177 174 173 172 174 177 182 185 184 182 181 184 188 188 187
340 338 339 341 342 345 347 345 343 344 345 347 349 347 344 344 345 346 345 340 334 337 343 337 330 336 343 338 332 331 331 333 335 332 328 324 317 304 277 243 228 225 224 225 228 232 235 237 240 242 245 249 252 253 247 223 201 192 186 181 180 181 180 180 182 183 183 182 177 169 165 167 170 172 175 180 184 185 184 183 183 183 183 184 187
344 342 343 345 345 347 349 348 348 347 345 347 349 348 347 349 349 349 351 348 346 349 350 344 341 346 346 341 339 336 331 333 335 333 330 324 317 308 290 261 233 222 221 223 225 226 227 228 230 233 236 239 241 241 230 205 189 186 184 182 182 181 181 182 184 185 183 177 170 165 166 170 173 174 176 180 183 184 184 184 184 183 181 185 191
346 346 347 348 347 348 348 349 350 350 348 348 347 346 350 357 2 1 357 355 356 358 357 352 352 356 357 352 347 343 337 336 338 338 337 333 324 311 292 271 249 234 232 229 222 217 214 215 219 221 224 228 229 224 208 188 179 181 183 183 182 180 182 185 186 184 180 175 173 172 172 172 172 173 175 179 182 183 185 185 184 182 182 187 193
345 347 349 349 348 348 348 348 350 351 351 352 350 345 346 355 5 9 5 360 359 1 1 359 360 3 4 0 355 351 348 346 347 347 345 341 336 322 293 268 252 242 238 233 222 213 208 207 212 215 216 220 220 208 193 182 179 179 181 183 183 182 183 186 186 183 178 177 177 176 175 175 174 175 177 180 179 180 183 185 185 186 187 189 191
349 348 350 349 349 350 349 349 350 352 353 355 356 353 349 351 358 3 5 6 5 4 4 4 3 6 7 5 3 1 356 353 354 354 351 349 350 349 326 277 261 247 236 229 220 211 209 209 209 210 211 215 212 200 189 183 183 182 181 183 185 185 185 186 185 182 180 179 178 178 179 180 178 177 178 178 177 178 181 184 187 189 189 189 192
357 353 351 350 351 352 352 351 350 352 354 356 357 357 356 354 353 353 357 3 8 11 11 8 5 6 8 6 6 5 2 1 2 1 1 1 3 14 36 46 31 353 239 228 220 210 209 210 210 211 211 211 206 195 188 187 187 185 184 185 187 188 188 186 184 182 182 182 181 180 182 182 180 177 177 177 177 179 182 185 187 187 186 189 194
7 3 358 354 353 353 353 352 350 350 353 356 358 357 356 358 357 348 344 352 1 7 9 10 9 8 7 8 8 7 6 7 7 7 10 10 10 24 44 50 43 39 34 15 307 244 222 214 210 210 211 211 206 196 190 189 188 186 186 188 187 185 184 183 182 184 185 184 183 182 182 181 179 177 176 177 180 182 184 185 185 186 188 190 192
15 13 8 2 359 357 355 353 351 351 352 355 358 358 357 356 356 349 338 333 336 344 356 4 7 6 6 8 9 8 9 12 12 14 18 17 18 31 42 39 26 24 24 19 10 357 334 294 238 217 210 208 205 198 192 191 189 187 187 186 183 180 178 179 184 187 186 184 183 183 182 181 181 179 178 179 181 183 185 187 187 188 190 189 188
19 16 12 6 2 360 358 356 355 353 353 354 356 358 0 1 0 357 351 343 333 334 349 358 3 5 7 9 10 9 10 11 14 19 22 20 22 32 37 29 12 9 7 4 8 11 9 5 354 316 228 208 205 200 193 191 191 190 187 183 180 178 178 181 185 186 185 185 185 183 181 182 183 181 179 181 185 187 187 188 189 191 191 189 188
23 18 13 6 2 2 1 1 0 357 356 358 359 358 1 4 5 5 2 355 346 344 349 354 359 3 6 8 9 7 5 8 17 24 25 22 23 27 27 20 18 17 7 359 1 7 13 16 16 14 15 14 206 201 196 193 191 189 186 184 181 181 182 184 185 184 185 186 185 183 182 183 184 182 181 183 187 190 189 188 189 191 191 190 188
29 25 16 5 2 5 5 3 4 3 1 3 4 3 4 5 5 5 4 1 358 355 352 351 354 358 0 4 6 5 6 14 21 23 20 18 18 20 19 18 20 20 15 10 6 5 12 17 19 20 23 25 29 41 184 194 192 188 185 184 185 186 186 184 184 184 185 185 185 184 184 184 184 184 184 185 188 190 190 190 189 189 189 189 190
35 32 26 12 7 9 8 6 6 5 5 5 5 5 5 5 6 6 5 4 3 2 359 357 358 359 360 4 7 8 11 16 18 15 13 14 14 13 16 17 17 16 16 13 11 12 16 17 18 20 23 25 29 33 34 48 183 188 188 186 186 187 186 184 183 185 187 186 186 185 185 185 186 186 187 188 189 189 190 190 190 189 188 190 194
37 34 29 22 16 14 12 11 8 7 6 5 4 5 6 5 5 6 7 6 5 3 3 4 3 2 2 7 12 13 13 13 12 11 13 13 12 12 16 18 16 14 13 11 12 15 19 20 19 20 21 23 27 31 32 33 39 130 188 190 189 187 186 186 186 187 189 189 188 186 186 186 186 186 189 191 191 190 190 191 191 191 190 193 196
42 36 31 28 24 20 18 15 12 9 7 7 6 6 6 5 5 7 9 8 6 4 5 6 7 7 7 9 14 17 17 16 15 15 14 13 13 14 15 16 16 16 15 12 12 15 19 22 23 22 22 23 25 28 30 33 35 38 51 153 187 189 189 191 192 192 191 191 190 188 188 187 185 186 190 193 192 191 191 191 191 192 193 195 197
46 38 31 29 28 26 22 17 13 11 10 9 9 8 6 5 6 8 10 10 9 7 6 6 7 10 12 10 12 17 21 21 18 16 14 14 13 13 13 14 16 17 16 15 15 17 20 23 24 24 25 25 25 26 28 30 31 34 38 42 54 107 162 184 194 196 196 195 192 190 189 188 188 190 192 192 190 189 190 190 190 190 192 194 195
50 43 35 29 29 28 25 19 16 15 12 9 7 8 8 8 9 10 11 12 13 11 9 6 7 9 12 13 15 19 21 21 19 17 16 14 12 12 14 16 17 18 19 19 20 22 25 26 26 26 27 27 27 29 30 30 29 31 33 36 40 46 53 67 138 189 197 197 195 193 191 191 191 193 192 190 189 189 189 189 188 188 190 193 193
50 45 38 33 30 30 28 25 22 19 16 13 11 11 11 11 10 10 10 12 13 12 10 8 7 8 10 14 17 19 19 19 18 17 16 15 14 14 15 17 18 19 20 21 22 25 28 29 28 27 28 28 29 31 33 33 33 32 30 31 33 35 35 36 37 55 185 194 194 193 192 193 194 195 193 190 190 189 188 188 187 188 191 192 192
49 44 38 34 31 29 28 27 25 21 19 18 17 15 14 12 10 9 9 9 11 12 11 11 11 11 11 13 15 17 18 17 17 17 17 16 17 17 16 17 20 21 20 20 23 26 29 30 29 28 27 27 28 31 33 34 35 34 32 31 31 30 28 28 31 42 98 173 184 185 186 188 191 192 191 190 191 191 190 189 188 188 190 192 193
46 43 38 34 30 28 27 26 24 22 22 20 17 15 15 12 10 9 8 8 9 10 10 12 15 16 15 14 15 16 16 16 17 18 18 19 20 20 18 19 21 23 23 23 25 27 30 31 31 29 28 27 28 30 33 34 35 35 34 33 33 32 33 35 41 53 74 117 156 170 175 177 180 184 186 187 190 192 193 192 191 190 192 194 197
43 42 38 34 31 27 26 25 23 21 21 20 18 16 14 12 11 10 10 9 9 9 9 11 13 15 15 16 16 16 15 16 18 20 20 20 22 23 23 24 25 25 25 26 27 29 31 32 32 31 29 28 29 31 33 34 35 35 34 35 36 37 40 44 48 55 65 83 111 139 152 154 157 167 175 179 183 187 189 191 193 195 196 198 198
42 41 36 33 31 26 23 22 22 20 18 17 16 15 14 13 12 11 10 9 9 9 9 10 11 12 15 16 17 17 17 19 21 22 22 23 25 26 28 28 27 25 26 28 29 30 32 33 32 32 31 29 29 31 33 34 35 35 35 36 38 42 47 51 53 57 64 73 85 99 111 118 122 130 143 156 164 170 172 177 184 190 194 197 197
38 37 34 34 31 25 21 20 19 17 16 14 12 13 14 13 12 12 11 10 9 9 9 10 10 12 14 15 15 17 19 20 21 21 22 25 27 28 30 31 30 29 31 32 31 32 34 35 34 34 33 32 32 32 33 34 36 36 35 37 41 46 51 54 57 61 66 71 75 80 85 89 91 93 99 112 126 134 139 143 150 161 170 177 182
36 31 30 33 30 24 21 20 18 17 17 15 12 11 11 11 11 11 11 9 9 9 10 10 11 12 14 14 15 16 17 19 20 21 23 25 27 29 32 33 34 34 35 34 33 33 35 36 36 36 35 34 34 34 34 35 36 37 38 41 45 50 53 55 58 62 66 67 70 72 75 77 78 77 78 83 91 98 104 108 113 121 128 131 139
32 30 28 31 28 22 18 17 16 16 16 15 12 11 9 8 9 9 9 9 7 7 8 10 11 13 15 16 16 17 17 18 20 22 24 25 27 29 31 33 34 34 36 36 35 34 34 35 36 37 36 35 35 35 35 35 36 39 43 46 48 51 54 56 58 61 65 67 69 70 70 71 70 68 68 70 74 77 80 85 90 96 100 102 106